Charlottesville, VA (22905)

9:04 AM EDT on September 05, 2015 (GMT -0400)
Charlottesville 2W | | Change Station
CLOSE
Current Station
Personal Weather Station
Location: Charlottesville, VA
Elevation: 866 ft
Nearby Weather Stations

Elev 866 ft 38.03 °N, 78.52 °W | Updated 15 seconds ago

Overcast
Overcast
71.9 °F
Feels Like 71.9 °F
N
0.0
Wind Variable Wind from North
Gusts 0.0 mph

Today
High -- | Low -- °F
--% Chance of Precip.
Yesterday
High -- | Low -- °F
Precip. -- in
6:46 AM 7:37 PM
Waning Gibbous, 49% visible
Pressure 30.23 in
Visibility 6.0 miles
Clouds Mostly Cloudy 1000 ft
Dew Point 69 °F
Humidity 92%
Rainfall 0.00 in
Snow Depth Not available.
UV 1 out of 12
Pollen 7.50 out of 12
Air Quality Not available.
Flu Activity Not available.
SPECI KCHO 051258Z 04008KT 6SM HZ BKN010 23/20 A3023 RMK AO2 CIG 006V013 T02280200
Pressure 30.23 in
Visibility 6.0 miles
Clouds Mostly Cloudy 1000 ft
Dew Point 69 °F
Humidity 92%
Rainfall 0.00 in
Snow Depth Not available.
UV 1 out of 12
Pollen 7.50 out of 12
Air Quality Not available.
Flu Activity Not available.
SPECI KCHO 051258Z 04008KT 6SM HZ BKN010 23/20 A3023 RMK AO2 CIG 006V013 T02280200

10-Day Weather Forecast

×

Almanac

Astronomy

Sep. 05, 2015 Rise Set
Actual Time
Civil Twilight
Nautical Twilight
Astronomical Twilight
Moon
Length of Visible Light
Length of Day
Tomorrow will be .
, % of the Moon is Illuminated

Today's Extremes

State Highs State Lows

Community

WunderPhotos

Upload Photos

1,852,454 photos uploaded!

WunderBlogs® & News

Nearby

Air Quality

  Air Quality AQ Index Pollutant
Not available.

Snow Depth

Station Depth Elevation

Earthquake Activity

City Distance Mag. Time & Date
Minimum magnitude displayed is 2.5.

Coastal Water Temperatures

Place Temperature

Stations

Nearby Weather Stations

Station Location Temp. Windchill Dew Point Humidity Wind Precip. Elev Updated Type